Starlink 5983

operational
NORAD ID: 57224 Int'l Des: 2023-094 Owner: SPXS Country: US Constellation: starlink
LEOCIRCULAR

Über Starlink 5983

Beschreibung wird geladen...

Live-Position

3D-Globus wird geladen...

Nächste Überflüge

Höhenverlauf

Altitude vs Time

uPlot chart will show altitude changes over time

Zweizeiliger Elementsatz

1 57224U 23094G 25351.62936346 -.00000024 00000-0 13310-4 0 9992
2 57224 43.0032 116.4212 0001257 270.4322 89.6376 15.02532923134779
Epoch: 17. Dez. 2025 • Age: 26 hours

Aktueller Status

Höhe 562.7 km
Geschwindigkeit 7.59 km/s
Subsatellitenpunkt 41.41°N, 123.58°W
Startdatum 7. Juli 2023
Alter 2.4 years
Typ internet

Technische Details

Klassifizierung Payload
Masse 305.00 kg
Trockenmasse 290.00 kg
Gesamtmasse 305.00 kg
Länge 0.20 m
Durchmesser 2.80 m
Spannweite 9.00 m
Form Box + pan
Hersteller SPXS
Bus-Typ Starlink
Phasenstatus In Orbit
Besitzer/Staat SPXS/US

Große Konstellationen

Loading constellations...